Naha City, Japan

9:11 PM JST on May 27, 2018 (GMT +0900)
Naha

Weather History for ROAH - April, 2013

Change the Weather History Date:

Tuesday, April 23, 2013

  Actual Average Record
Temperature  
Mean Temperature 73 °F -  
Max Temperature 78 °F 77 °F 82 °F (1998)
Min Temperature 68 °F 69 °F 64 °F (2009)
Cooling Degree Days 8    
Growing Degree Days 23 (Base 50)    
Moisture  
Dew Point 58 °F    
Average Humidity 60    
Maximum Humidity 78    
Minimum Humidity 47    
Precipitation  
Precipitation 0.00 in - - ()
Sea Level Pressure  
Sea Level Pressure 30.02 in    
Wind  
Wind Speed 10 mph ()    
Max Wind Speed 16 mph    
Max Gust Speed -    
Visibility 6.2 miles    
Events Rain    
Averages and records for this station are not official NWS values.
T = Trace of Precipitation, MM = Missing Value Source: Averaged Metar Reports

Daily Weather History Graph

Daily Weather History Graph

Search for Another Location

Airport or City:

Astronomy

Apr. 23, 2013 Rise Set
Actual Time 5:59 AM JST 6:56 PM JST
Civil Twilight 5:35 AM JST 7:20 PM JST
Nautical Twilight 5:06 AM JST 7:49 PM JST
Astronomical Twilight 4:37 AM JST 8:18 PM JST
Moon 4:25 PM JST (4/23) 3:49 AM JST (4/23)
Length of Visible Light 13h 45m
Length of Day
12h 57m
Waxing Gibbous, 91% of the Moon is Illuminated
Apr 23
Waxing Gibbous
Apr 26
Full
May 2
Last Quarter
May 10
New
May 18
First Quarter

Hourly Weather History & Observations

Time (JST) Temp. Dew Point Humidity Pressure Visibility Wind Dir Wind Speed Gust Speed Precip Events Conditions
12:00 AM 69.8 °F 55.4 °F 60% 30.06 in 6.2 mi ESE 11.5 mph - N/A   Scattered Clouds
12:30 AM 69.8 °F 53.6 °F 56% 30.09 in 6.2 mi SE 9.2 mph - N/A   Scattered Clouds
1:00 AM 69.8 °F 55.4 °F 60% 30.06 in 6.2 mi SE 10.4 mph - N/A   Scattered Clouds
1:30 AM 68.0 °F 51.8 °F 56% 30.06 in 6.2 mi SE 10.4 mph - N/A   Partly Cloudy
2:00 AM 68.0 °F 53.6 °F 60% 30.06 in 6.2 mi SE 8.1 mph - N/A   Partly Cloudy
2:30 AM 68.0 °F 53.6 °F 60% 30.04 in 6.2 mi SE 5.8 mph - N/A   Partly Cloudy
3:00 AM 68.0 °F 53.6 °F 60% 30.04 in 6.2 mi SE 5.8 mph - N/A   Scattered Clouds
3:30 AM 68.0 °F 53.6 °F 60% 30.04 in 6.2 mi ESE 4.6 mph - N/A   Mostly Cloudy
4:00 AM 68.0 °F 55.4 °F 64% 30.01 in 6.2 mi East 3.5 mph - N/A   Mostly Cloudy
4:30 AM 69.8 °F 55.4 °F 60% 30.01 in 6.2 mi ESE 8.1 mph - N/A   Mostly Cloudy
5:00 AM 69.8 °F 57.2 °F 64% 30.01 in 6.2 mi ESE 12.7 mph - N/A   Mostly Cloudy
5:30 AM 69.8 °F 59.0 °F 68% 30.01 in 6.2 mi ESE 8.1 mph - N/A   Mostly Cloudy
6:00 AM 69.8 °F 59.0 °F 68% 30.01 in 6.2 mi ESE 8.1 mph - N/A Rain Light Rain Showers
6:30 AM 69.8 °F 59.0 °F 68% 30.01 in 6.2 mi SE 6.9 mph - N/A   Mostly Cloudy
7:00 AM 71.6 °F 59.0 °F 64% 30.01 in 6.2 mi SE 8.1 mph - N/A Rain Light Rain Showers
7:30 AM 71.6 °F 55.4 °F 57% 30.04 in 6.2 mi SSE 12.7 mph - N/A   Mostly Cloudy
8:00 AM 71.6 °F 53.6 °F 53% 30.04 in 6.2 mi SE 13.8 mph - N/A   Mostly Cloudy
8:30 AM 73.4 °F 53.6 °F 50% 30.06 in 6.2 mi SSE 11.5 mph - N/A   Mostly Cloudy
9:00 AM 73.4 °F 55.4 °F 53% 30.06 in 6.2 mi SSE 11.5 mph - N/A   Mostly Cloudy
9:30 AM 73.4 °F 55.4 °F 53% 30.09 in 6.2 mi SE 6.9 mph - N/A   Mostly Cloudy
10:00 AM 73.4 °F 55.4 °F 53% 30.06 in 6.2 mi SE 9.2 mph - N/A   Mostly Cloudy
10:30 AM 75.2 °F 57.2 °F 53% 30.06 in 6.2 mi SE 11.5 mph - N/A   Mostly Cloudy
11:00 AM 75.2 °F 57.2 °F 53% 30.06 in 6.2 mi SSE 15.0 mph - N/A   Mostly Cloudy
11:30 AM 75.2 °F 57.2 °F 53% 30.06 in 6.2 mi SE 15.0 mph - N/A   Scattered Clouds
12:00 PM 77.0 °F 57.2 °F 50% 30.04 in 6.2 mi SE 13.8 mph - N/A   Scattered Clouds
12:30 PM 77.0 °F 55.4 °F 47% 30.04 in 6.2 mi SSE 15.0 mph - N/A   Scattered Clouds
1:00 PM 77.0 °F 57.2 °F 50% 30.01 in 6.2 mi SSE 16.1 mph - N/A   Scattered Clouds
1:30 PM 77.0 °F 57.2 °F 50% 30.01 in 6.2 mi SSE 15.0 mph - N/A   Scattered Clouds
2:00 PM 77.0 °F 59.0 °F 54% 29.98 in 6.2 mi SSE 15.0 mph - N/A   Partly Cloudy
2:30 PM 77.0 °F 59.0 °F 54% 29.98 in 6.2 mi SSE 15.0 mph - N/A   Partly Cloudy
3:00 PM 77.0 °F 59.0 °F 54% 29.98 in 6.2 mi South 15.0 mph - N/A   Partly Cloudy
3:30 PM 78.8 °F 59.0 °F 51% 29.98 in 6.2 mi South 15.0 mph - N/A   Partly Cloudy
4:00 PM 77.0 °F 59.0 °F 54% 29.95 in 6.2 mi South 15.0 mph - N/A   Partly Cloudy
4:30 PM 77.0 °F 59.0 °F 54% 29.95 in 6.2 mi SSE 16.1 mph - N/A   Partly Cloudy
5:00 PM 75.2 °F 60.8 °F 61% 29.95 in 6.2 mi SSE 15.0 mph - N/A   Partly Cloudy
5:30 PM 75.2 °F 60.8 °F 61% 29.95 in 6.2 mi SSE 16.1 mph - N/A   Partly Cloudy
6:00 PM 75.2 °F 60.8 °F 61% 29.95 in 6.2 mi SSE 16.1 mph - N/A   Partly Cloudy
6:30 PM 75.2 °F 62.6 °F 65% 29.95 in 6.2 mi SSE 15.0 mph - N/A   Partly Cloudy
7:00 PM 73.4 °F 62.6 °F 69% 29.98 in 6.2 mi SSE 15.0 mph - N/A   Partly Cloudy
7:30 PM 73.4 °F 62.6 °F 69% 29.98 in 6.2 mi SSE 13.8 mph - N/A   Partly Cloudy
8:00 PM 73.4 °F 62.6 °F 69% 29.98 in 6.2 mi SSE 15.0 mph - N/A   Partly Cloudy
8:30 PM 73.4 °F 64.4 °F 73% 29.98 in 6.2 mi SSE 16.1 mph - N/A   Partly Cloudy
9:00 PM 73.4 °F 64.4 °F 73% 30.01 in 6.2 mi SSE 12.7 mph - N/A   Partly Cloudy
9:30 PM 73.4 °F 64.4 °F 73% 30.01 in 6.2 mi SSE 12.7 mph - N/A   Partly Cloudy
10:00 PM 73.4 °F 64.4 °F 73% 30.01 in 6.2 mi SSE 11.5 mph - N/A   Partly Cloudy
10:30 PM 73.4 °F 64.4 °F 73% 30.01 in 6.2 mi SSE 12.7 mph - N/A   Partly Cloudy
11:00 PM 73.4 °F 64.4 °F 73% 30.01 in 6.2 mi South 11.5 mph - N/A   Partly Cloudy
11:30 PM 73.4 °F 66.2 °F 78% 30.01 in 6.2 mi SSE 11.5 mph - N/A   Scattered Clouds